User: anonymous   Login
Location: Unspecified
(0.0000°N, 0.0000°E)
Time: 12:00:19
(UTC+02:00)
Language:

Cosmos 1758 - Orbit

View from above orbital plane
View from above orbital plane
View from above satellite
View from above satellite

Ground track
Ground track

The orbit data is extracted from the following two-line orbital elements,

1 16791U 86046A   15141.42083730  .00002714  00000-0  19905-3 0  9998
2 16791 082.4729 049.7268 0018072 140.8621 219.3916 15.03002431571793
Epoch (UTC): 21 May 2015 10:06:00
Eccentricity: 0.0018072
inclination: 82.4729°
perigee height: 545 km
apogee height: 570 km
right ascension of ascending node: 49.7268°
argument of perigee: 140.8621°
revolutions per day: 15.03002431
mean anomaly at epoch: 219.3916°
orbit number at epoch: 57179

The dashed part of the orbit path shows where the satellite is in the earth's shadow,  

DLR